STARLINK-5650, 55475

Orbit data source: Space-Track

STARLINK-5650, 55475 is a payload satellite owned by SpaceX/Seattle (US) in LEO that was launched on Thu, 02 Feb 2023 UTC via an FALCON 9 launch vehicle from the Air Force Eastern Test Range (AFETR). Payload-class satellites include a variety of spacecraft equipped with specific instruments for various scientific and technological missions. These include communications satellites like Starlink; space stations such as the ISS; scientific satellites like the Hubble; Earth observation satellites from companies like Planet Labs, Umbra, and HawkEye 360; GPS; miniature CubeSats for education and research; and military/defense satellites.

Loading next visibility...
Identifier
55475, 2023-015AC
Orbit
LEO
Country
Flag of USUS
Related business
Manufacturer
SpaceX/Seattle
Mission
Operational Commercial Communications
Bus & Motor
STARLINK, Unknown motor
Mass
305 kg wet, ~290 kg dry
Launch date (UTC)
2023-02-02 (3 years ago)
Launch vehicle
FALCON 9
Launch site
Air Force Eastern Test Range (AFETR)
Object type
Payload
Rocket body
Debris
Shape & HBR
Box + 1 Pan, 10.1 m
Radar Cross Section
13.562 m², Large (>1 m²)

Expand to show TLE details & history
Last TLE update: 17 hours ago

TLE from 17 hours ago
0 STARLINK-5650
1 55475U 23015AC  26035.35449503  .00000669  00000-0  64622-4 0  9991
2 55475  43.0013 146.7642 0001368 271.3465  88.7221 15.02535448165743
Epoch: 2026-02-04T08:30Z
TLE epoch observation values (Epoch: 2026-02-04T08:30:28.370Z)
Latitude
0.00001°
Longitude
-115.37628°
Altitude
558.838 km
Speed
7.584 km/s
True Right ascension
09h 47m 03s
True Declination
0° 00' 00"
Sunlit
Object was in full shadow at epoch
Visualization orbit readout
Latitude
Unknown
Longitude
Unknown
Altitude
Unknown
Speed
Unknown
Apparent Right ascension
Unknown
Apparent Declination
Unknown
Sunlit
N/A
Visualization observer readout
Local Sidereal Time
03:02:33
Azimuth
Unknown
Elevation
Unknown
Doppler factor
Unknown
Orbital elements
Apogee altitude
561.954 km
Perigee altitude
560.056 km
Semi-major axis
6,939.142 km
Eccentricity
0.00014
Inclination
43.0013°
RAAN
146.7642°
Arg. of periapsis
271.3465°
True anomaly
88.73777°
Mean anomaly
88.7221°
Eccentric anomaly
88.72994°
Mean motion
3.75478 °/min
Orbital period
95.88 mins
BSTAR
0.000064622
Loading maneuver chart data...
Computing Atmospheric mass density...
Loading historical data...
Loading historical data...
Loading historical data...
Loading historical data...
Loading historical data...
Loading historical data...
Loading historical data...

Documentation

Showing up to 5 results
|